When you browse on this site, cookies collect data to enhance your experience and personalize the content and advertising you see.
Visit our Privacy Policy to learn more. By continuing to use the site, you agree to this use of cookies and data.
  • In Latvia
  • List of Countries
  • For 7 days
  • Water Temperature
  • Weather Map
  • Weather Widgets
  • user-avatar
    Login

    Hourly Weather Sankt Polten

    Today, 5 June, Friday

    Time Temperature Precipitation Wind Pressure Humidity
    00:00 +15°C° 0.2 mm 2 mps 721 mmHg 95%
    01:00 +13°C° 0 mm 3 mps 721 mmHg 95%
    02:00 +13°C° 0.8 mm 3 mps 721 mmHg 96%
    03:00 +13°C° 0.8 mm 3 mps 721 mmHg 97%
    04:00 +13°C° 0.8 mm 3 mps 721 mmHg 97%
    05:00 +12°C° 1.2 mm 3 mps 721 mmHg 97%
    06:00 +12°C° 1.2 mm 3 mps 722 mmHg 96%
    07:00 +12°C° 0 mm 3 mps 722 mmHg 97%
    08:00 +12°C° 0.4 mm 3 mps 723 mmHg 95%
    09:00 +13°C° 0.4 mm 3 mps 723 mmHg 93%
    10:00 +14°C° 0.4 mm 2 mps 723 mmHg 91%
    11:00 +14°C° 0.2 mm 3 mps 724 mmHg 89%
    12:00 +14°C° 0.2 mm 3 mps 724 mmHg 86%
    13:00 +15°C° 0.2 mm 4 mps 724 mmHg 84%
    14:00 +17°C° 0 mm 3 mps 724 mmHg 77%
    15:00 +18°C° 0 mm 3 mps 724 mmHg 70%
    16:00 +19°C° 0 mm 3 mps 724 mmHg 63%
    17:00 +18°C° 0 mm 2 mps 725 mmHg 68%
    18:00 +17°C° 0 mm 2 mps 725 mmHg 74%
    19:00 +16°C° 0 mm 1 mps 725 mmHg 79%
    20:00 +15°C° 0 mm 1 mps 726 mmHg 81%
    21:00 +14°C° 0 mm 1 mps 727 mmHg 83%
    22:00 +13°C° 0 mm 1 mps 727 mmHg 85%
    23:00 +13°C° 0 mm 1 mps 728 mmHg 84%

    Tomorrow, 6 June, Saturday

    Time Temperature Precipitation Wind Pressure Humidity
    00:00 +13°C° 0 mm 1 mps 728 mmHg 83%
    01:00 +13°C° 0 mm 1 mps 728 mmHg 82%
    02:00 +13°C° 0 mm 1 mps 729 mmHg 81%
    03:00 +13°C° 0 mm 1 mps 729 mmHg 80%
    04:00 +13°C° 0 mm 1 mps 729 mmHg 79%
    05:00 +14°C° 0 mm 1 mps 730 mmHg 77%
    06:00 +16°C° 0 mm 1 mps 730 mmHg 74%
    07:00 +16°C° 0 mm 0 mps 730 mmHg 71%
    08:00 +19°C° 0 mm 1 mps 730 mmHg 67%
    09:00 +20°C° 0 mm 2 mps 730 mmHg 63%
    10:00 +21°C° 0 mm 3 mps 730 mmHg 58%
    11:00 +22°C° 0 mm 3 mps 730 mmHg 56%
    12:00 +24°C° 0 mm 3 mps 729 mmHg 54%
    13:00 +23°C° 0 mm 4 mps 729 mmHg 52%
    14:00 +25°C° 0 mm 3 mps 729 mmHg 52%
    15:00 +25°C° 0 mm 3 mps 728 mmHg 53%
    16:00 +25°C° 0 mm 3 mps 728 mmHg 54%
    17:00 +24°C° 0 mm 2 mps 728 mmHg 63%
    18:00 +23°C° 0 mm 2 mps 728 mmHg 71%
    19:00 +21°C° 0 mm 1 mps 728 mmHg 79%
    20:00 +20°C° 0 mm 1 mps 728 mmHg 83%
    21:00 +19°C° 0 mm 1 mps 728 mmHg 87%
    22:00 +16°C° 0 mm 1 mps 729 mmHg 91%
    23:00 +16°C° 0.3 mm 1 mps 729 mmHg 93%

    Day after tomorrow, 7 June, Sunday

    Time Temperature Precipitation Wind Pressure Humidity
    00:00 +16°C° 0.3 mm 2 mps 729 mmHg 95%
    01:00 +15°C° 0.3 mm 2 mps 729 mmHg 96%
    02:00 +15°C° 0.1 mm 2 mps 729 mmHg 96%
    03:00 +15°C° 0.1 mm 2 mps 728 mmHg 97%
    04:00 +15°C° 0.1 mm 1 mps 728 mmHg 97%
    05:00 +15°C° 0 mm 1 mps 728 mmHg 95%
    06:00 +16°C° 0 mm 1 mps 728 mmHg 92%
    07:00 +18°C° 0 mm 1 mps 729 mmHg 90%
    08:00 +19°C° 0 mm 1 mps 729 mmHg 83%
    09:00 +21°C° 0 mm 1 mps 729 mmHg 76%
    10:00 +22°C° 0 mm 1 mps 729 mmHg 68%
    11:00 +22°C° 0.3 mm 1 mps 729 mmHg 71%
    12:00 +21°C° 0.3 mm 2 mps 729 mmHg 74%
    13:00 +21°C° 0.3 mm 2 mps 729 mmHg 77%
    14:00 +21°C° 1.2 mm 2 mps 729 mmHg 80%
    15:00 +20°C° 1.2 mm 2 mps 729 mmHg 83%
    16:00 +20°C° 1.2 mm 2 mps 729 mmHg 87%
    17:00 +19°C° 0.9 mm 2 mps 729 mmHg 90%
    18:00 +18°C° 0.9 mm 2 mps 729 mmHg 93%
    19:00 +18°C° 0.9 mm 1 mps 729 mmHg 96%
    20:00 +16°C° 0.7 mm 2 mps 729 mmHg 97%
    21:00 +15°C° 0.7 mm 2 mps 729 mmHg 97%
    22:00 +15°C° 0.7 mm 2 mps 730 mmHg 98%
    23:00 +14°C° 1.3 mm 2 mps 730 mmHg 98%

    8 June, Monday

    Time Temperature Precipitation Wind Pressure Humidity
    00:00 +13°C° 1.3 mm 3 mps 730 mmHg 97%
    01:00 +12°C° 1.3 mm 3 mps 730 mmHg 97%
    02:00 +13°C° 0.3 mm 2 mps 730 mmHg 97%
    03:00 +13°C° 0.3 mm 2 mps 730 mmHg 97%
    04:00 +13°C° 0.3 mm 2 mps 730 mmHg 97%
    05:00 +13°C° 0.1 mm 2 mps 730 mmHg 97%
    06:00 +13°C° 0.1 mm 2 mps 730 mmHg 97%
    07:00 +13°C° 0.1 mm 2 mps 731 mmHg 96%
    08:00 +14°C° 0 mm 2 mps 731 mmHg 93%
    09:00 +15°C° 0 mm 2 mps 732 mmHg 91%
    10:00 +15°C° 0 mm 2 mps 732 mmHg 88%
    11:00 +15°C° 0 mm 2 mps 732 mmHg 87%
    12:00 +16°C° 0 mm 2 mps 732 mmHg 86%
    13:00 +16°C° 0 mm 2 mps 732 mmHg 85%
    14:00 +16°C° 0 mm 2 mps 732 mmHg 83%
    15:00 +16°C° 0 mm 1 mps 732 mmHg 82%
    16:00 +18°C° 0 mm 1 mps 732 mmHg 80%
    17:00 +18°C° 0 mm 1 mps 732 mmHg 82%
    18:00 +16°C° 0 mm 1 mps 732 mmHg 84%
    19:00 +15°C° 0 mm 0 mps 733 mmHg 87%
    20:00 +14°C° 0 mm 0 mps 733 mmHg 89%
    21:00 +14°C° 0 mm 1 mps 733 mmHg 92%
    22:00 +12°C° 0 mm 1 mps 733 mmHg 94%
    23:00 +12°C° 0 mm 1 mps 733 mmHg 95%

    9 June, Tuesday

    Time Temperature Precipitation Wind Pressure Humidity
    00:00 +11°C° 0 mm 1 mps 733 mmHg 95%
    01:00 +11°C° 0 mm 1 mps 733 mmHg 96%
    02:00 +11°C° 0 mm 1 mps 733 mmHg 96%
    03:00 +11°C° 0 mm 1 mps 733 mmHg 96%
    04:00 +10°C° 0 mm 1 mps 733 mmHg 96%
    05:00 +12°C° 0 mm 1 mps 733 mmHg 91%
    06:00 +14°C° 0 mm 1 mps 733 mmHg 86%
    07:00 +15°C° 0 mm 1 mps 733 mmHg 81%
    08:00 +17°C° 0 mm 2 mps 733 mmHg 77%
    09:00 +18°C° 0 mm 2 mps 734 mmHg 72%
    10:00 +19°C° 0 mm 2 mps 734 mmHg 68%
    11:00 +20°C° 0 mm 3 mps 733 mmHg 68%
    12:00 +21°C° 0 mm 3 mps 733 mmHg 68%
    13:00 +21°C° 0 mm 3 mps 733 mmHg 68%
    14:00 +21°C° 0.1 mm 4 mps 733 mmHg 70%
    15:00 +21°C° 0.1 mm 4 mps 732 mmHg 72%
    16:00 +21°C° 0.1 mm 4 mps 732 mmHg 74%
    17:00 +20°C° 0.1 mm 3 mps 732 mmHg 78%
    18:00 +19°C° 0.1 mm 3 mps 732 mmHg 83%
    19:00 +18°C° 0.1 mm 2 mps 733 mmHg 87%
    20:00 +17°C° 0 mm 2 mps 733 mmHg 90%
    21:00 +16°C° 0 mm 2 mps 733 mmHg 93%
    22:00 +14°C° 0 mm 1 mps 733 mmHg 96%
    23:00 +14°C° 0 mm 1 mps 733 mmHg 96%

    10 June, Wednesday

    Time Temperature Precipitation Wind Pressure Humidity
    00:00 +13°C° 0 mm 1 mps 733 mmHg 97%
    01:00 +13°C° 0 mm 1 mps 733 mmHg 97%
    02:00 +13°C° 0 mm 1 mps 733 mmHg 96%
    03:00 +13°C° 0 mm 1 mps 733 mmHg 95%
    04:00 +14°C° 0 mm 1 mps 733 mmHg 94%
    05:00 +14°C° 0 mm 1 mps 733 mmHg 93%
    06:00 +15°C° 0 mm 1 mps 733 mmHg 91%
    07:00 +16°C° 0 mm 1 mps 733 mmHg 90%
    08:00 +16°C° 0 mm 1 mps 733 mmHg 88%
    09:00 +17°C° 0 mm 2 mps 733 mmHg 86%
    10:00 +18°C° 0 mm 2 mps 733 mmHg 84%
    11:00 +18°C° 0.1 mm 2 mps 733 mmHg 84%
    12:00 +19°C° 0.1 mm 2 mps 733 mmHg 83%
    13:00 +19°C° 0.1 mm 2 mps 733 mmHg 83%
    14:00 +20°C° 0.4 mm 2 mps 733 mmHg 82%
    15:00 +20°C° 0.4 mm 2 mps 733 mmHg 82%
    16:00 +21°C° 0.4 mm 2 mps 733 mmHg 81%
    17:00 +20°C° 1.1 mm 2 mps 733 mmHg 86%
    18:00 +19°C° 1.1 mm 2 mps 733 mmHg 90%
    19:00 +18°C° 1.1 mm 2 mps 733 mmHg 95%
    20:00 +18°C° 0.5 mm 2 mps 733 mmHg 95%
    21:00 +18°C° 0.5 mm 1 mps 733 mmHg 96%
    22:00 +18°C° 0.5 mm 1 mps 734 mmHg 96%
    23:00 +16°C° 0.1 mm 1 mps 733 mmHg 97%
    Show more